Wind_Speed
11 11 12 13 14 15 15 15 16 17 16 17 18 19 19 19 19 19 19 19 18 18 18 18 18 18 17 16 16 16 17 18 19 19 20 21 22 23 24 24 25 26 26 26
10 11 12 12 12 13 13 14 15 16 16 16 17 18 18 18 18 19 19 19 18 19 19 19 19 19 18 17 17 18 18 18 19 20 21 22 22 23 24 25 25 26 26 27
11 11 10 10 11 12 12 12 13 14 14 15 16 17 17 17 17 18 19 19 18 19 19 20 19 19 19 19 19 19 19 19 19 20 22 23 24 24 25 26 26 26 27 28
10 10 10 10 10 10 11 11 12 11 11 13 13 14 16 16 16 17 18 18 18 19 19 19 20 20 20 20 20 20 21 21 21 21 23 24 24 24 25 27 27 28 28 29
9 9 9 10 10 10 12 11 11 11 11 12 12 12 15 16 16 16 17 18 18 19 19 20 21 21 22 22 22 21 22 23 22 22 23 24 25 26 27 28 28 29 30 30
8 8 9 9 9 10 11 10 11 11 11 12 13 12 14 15 16 17 17 18 18 19 20 21 21 21 21 22 22 22 23 24 24 24 24 24 25 26 27 28 29 30 31 32
7 8 9 9 10 10 10 9 9 9 11 12 15 14 15 15 15 16 17 17 18 18 19 20 20 20 21 21 23 23 23 23 24 24 24 25 25 26 27 29 30 31 32 32
6 7 8 8 9 10 10 10 10 10 11 12 15 14 14 14 15 16 16 16 17 17 17 18 19 20 21 22 23 22 23 25 25 25 25 25 26 26 27 28 29 29 30 31
7 9 8 8 8 9 9 10 12 12 12 12 14 15 14 14 15 16 16 17 17 18 18 19 20 21 21 23 23 22 23 25 25 25 25 24 24 24 24 25 25 26 27 27
7 8 8 8 9 9 9 10 10 9 10 11 13 14 15 15 15 16 16 17 18 19 20 20 21 21 22 23 23 23 23 24 24 24 24 23 22 23 23 23 23 24 24 24
7 7 8 8 8 9 9 10 10 11 12 11 12 14 15 15 15 16 16 17 18 19 20 20 20 21 22 23 23 23 23 23 23 23 22 22 22 22 22 23 23 23 23 23
7 7 8 9 8 9 10 10 10 11 12 12 13 15 15 15 16 16 16 17 17 18 19 19 20 21 21 22 22 22 22 22 22 21 20 20 20 21 22 22 23 22 22 22
6 7 7 7 8 8 9 9 9 11 12 12 13 16 16 16 16 16 16 17 17 18 18 19 20 20 21 22 21 21 21 21 21 20 19 19 19 20 20 21 20 20 20 20
6 6 6 7 8 8 8 9 9 10 11 13 14 15 16 16 16 16 16 17 17 17 18 18 19 20 20 20 20 21 20 19 19 18 18 18 18 18 19 19 18 18 18 18
6 6 6 6 7 7 8 9 9 10 11 12 14 14 15 15 16 16 16 16 17 17 17 18 18 19 19 19 19 18 18 18 17 17 17 17 17 17 17 17 16 16 16 16
6 5 5 6 6 7 7 8 9 10 11 12 13 14 13 14 14 15 16 16 16 16 17 17 17 17 17 17 17 18 18 17 17 16 16 16 16 16 15 15 14 14 14 14
5 5 5 5 6 7 7 8 9 9 10 11 12 13 12 13 14 15 16 15 16 16 16 16 16 15 15 16 16 17 16 15 15 14 14 15 15 14 14 14 13 13 13 13
5 5 5 5 6 6 7 8 8 10 10 11 12 13 13 14 14 14 14 15 15 16 16 16 14 14 14 15 15 14 13 13 13 12 12 12 12 12 11 11 11 11 11 10
4 4 4 4 6 7 8 8 9 10 10 10 11 12 12 12 13 13 13 14 15 14 15 14 13 13 13 13 13 12 11 11 10 10 10 10 10 10 9 9 9 9 9 9
3 4 4 5 6 7 8 8 8 9 9 10 11 11 11 11 11 12 12 13 14 14 14 13 12 11 11 10 9 9 9 8 8 8 9 8 8 8 8 8 8 8 8 7
3 4 4 5 6 7 7 8 7 8 9 9 10 10 11 11 11 11 12 13 14 13 12 11 10 10 9 8 7 6 7 7 7 7 7 7 7 7 7 7 7 6 6 6
4 4 4 5 6 7 7 7 7 7 8 9 9 10 10 11 11 11 11 11 11 10 9 9 8 7 6 6 6 6 5 5 5 6 6 6 7 7 6 7 6 6 6 6
4 4 5 5 5 6 6 7 7 7 8 9 9 10 10 11 11 10 11 10 9 8 8 7 6 5 5 4 4 4 4 4 5 6 6 6 6 6 6 6 6 7 7 7
5 4 4 5 4 5 5 6 7 7 7 8 9 10 10 11 10 10 10 9 8 7 6 6 5 4 4 3 3 4 4 4 5 5 5 6 6 7 7 7 7 8 9 9
5 4 4 4 4 5 5 6 7 7 8 9 10 11 10 10 10 10 9 8 7 7 6 5 5 4 4 3 4 4 4 4 4 5 5 6 6 7 7 7 8 8 9 10
5 5 5 5 5 5 5 5 6 8 8 9 10 10 10 10 10 10 9 8 8 7 6 5 4 4 5 5 5 5 5 5 5 6 6 7 7 8 8 8 8 9 9 10
Wind_Direction
198 198 202 208 209 215 221 226 234 240 244 247 251 256 260 262 264 265 265 266 267 270 275 279 280 280 282 281 278 277 278 275 275 274 272 271 269 268 266 266 266 266 265 265
195 204 209 214 216 219 223 228 236 243 247 251 255 258 263 263 262 263 264 265 266 269 272 276 277 278 278 279 280 281 280 277 276 277 276 274 272 270 269 268 266 266 267 267
197 211 212 212 215 219 223 227 237 247 252 254 258 262 264 264 262 262 263 263 266 268 271 274 275 277 276 276 278 281 280 279 278 278 278 278 275 272 269 268 269 268 268 269
205 212 212 213 216 218 228 233 239 248 253 258 260 263 267 266 262 260 263 264 266 267 268 270 274 277 278 277 278 279 280 280 280 280 280 278 276 274 274 272 272 271 271 271
208 207 208 211 217 219 229 236 241 246 248 254 262 261 264 264 263 261 262 263 265 268 269 274 278 279 278 279 281 279 282 282 281 281 281 278 276 275 274 273 274 275 275 273
209 213 218 223 228 231 236 241 248 251 253 259 261 263 268 266 266 264 263 262 265 269 273 277 278 280 281 282 283 281 283 285 285 283 281 279 278 277 275 275 276 276 276 275
215 221 227 232 236 238 238 238 252 258 258 260 264 267 267 267 267 266 267 268 269 272 275 275 278 281 280 282 283 283 284 287 289 288 285 281 280 279 278 278 279 278 277 276
215 233 233 235 233 239 241 235 238 248 254 262 271 271 271 268 268 267 268 271 274 276 277 276 278 280 281 284 286 287 287 287 287 286 287 285 282 280 280 281 280 280 279 278
212 229 235 237 237 238 246 245 241 249 256 261 268 273 274 272 273 271 270 271 274 276 278 279 279 281 282 285 287 289 290 289 289 288 290 289 287 285 282 282 282 281 280 279
225 234 239 239 241 241 243 252 253 249 260 265 272 276 274 276 276 276 275 275 275 278 280 281 282 284 286 287 287 287 288 290 293 293 292 290 289 287 286 286 286 285 283 282
234 235 243 244 244 250 255 260 258 253 251 259 267 272 275 277 279 280 279 280 280 282 282 282 282 283 285 287 289 288 288 290 292 293 291 290 290 291 290 289 289 287 285 283
235 235 246 252 252 254 257 258 260 261 264 264 264 268 275 278 281 283 283 284 285 283 283 283 283 284 288 290 292 291 290 291 292 292 293 293 292 292 292 291 290 286 284 283
245 248 256 265 264 261 260 258 258 260 264 267 268 272 277 279 281 283 284 287 288 285 285 285 284 286 289 290 290 291 291 292 293 293 295 297 296 295 295 294 290 287 286 286
247 248 250 252 260 263 263 260 263 266 268 269 269 274 277 282 283 285 286 287 289 287 288 287 286 287 286 286 288 289 289 291 291 293 296 297 299 300 299 297 294 291 291 291
249 253 259 266 267 263 265 267 270 271 272 273 274 277 281 284 286 287 288 291 291 292 292 290 289 289 287 286 287 289 292 294 294 295 299 299 303 306 307 304 298 297 298 297
242 253 261 269 271 270 272 272 275 279 281 282 281 284 288 289 290 291 293 295 296 295 294 294 293 290 286 285 287 291 295 296 297 298 300 301 303 306 308 308 304 301 301 301
245 257 265 269 275 278 282 284 282 286 288 290 290 291 295 294 294 295 296 295 296 297 295 293 294 291 290 290 291 293 295 297 298 300 302 304 305 307 309 310 306 303 301 300
253 263 271 272 279 287 298 298 296 296 293 292 294 295 297 296 297 297 297 297 298 297 297 296 292 295 295 293 294 295 296 298 299 302 306 308 309 313 314 315 313 312 310 307
259 268 273 281 288 298 304 306 304 300 298 298 299 303 303 303 302 301 301 301 300 299 302 299 294 294 295 293 294 296 297 299 304 305 310 313 314 314 314 319 323 323 322 319
271 278 280 287 293 302 309 309 310 308 307 305 303 307 311 309 305 305 304 304 304 304 301 298 297 296 295 295 296 299 300 307 316 316 315 320 324 324 326 331 334 333 329 329
279 281 289 298 303 309 314 317 319 319 318 316 313 313 316 317 315 313 311 309 309 308 306 304 298 295 294 296 298 303 310 316 322 325 327 328 336 342 345 350 353 353 351 348
278 278 287 300 307 313 317 321 325 328 329 328 326 325 326 326 324 323 321 319 319 318 317 315 309 306 306 309 310 313 321 325 330 342 350 354 357 0 5 9 11 13 14 14
283 288 289 298 307 318 317 324 330 333 335 339 341 338 336 335 333 330 330 330 333 336 331 328 324 326 329 331 332 332 334 340 349 2 13 21 24 25 28 32 37 37 43 46
284 292 295 298 306 318 325 333 340 344 346 350 350 348 347 346 344 343 345 346 347 346 342 343 344 343 349 359 1 7 8 9 13 23 30 33 33 39 46 56 56 53 56 57
284 289 297 300 305 316 328 338 345 346 351 353 353 353 354 355 356 357 358 0 1 1 359 1 1 9 22 32 33 40 40 39 42 46 49 50 53 57 62 64 63 63 64 66
292 293 295 297 301 310 326 335 343 348 352 354 355 357 1 4 5 6 7 8 11 16 21 24 31 42 54 59 58 61 60 58 56 62 66 68 68 67 70 72 68 67 68 75
Height
5841 5845 5847 5848 5850 5853 5855 5857 5858 5859 5860 5862 5862 5863 5863 5864 5864 5864 5864 5864 5864 5864 5863 5862 5861 5860 5859 5859 5858 5857 5855 5854 5853 5852 5851 5850 5850 5850 5849 5849 5849 5848 5848 5847
5841 5843 5845 5846 5848 5851 5853 5855 5856 5856 5857 5859 5859 5859 5860 5860 5860 5860 5860 5860 5860 5860 5859 5858 5857 5857 5855 5855 5854 5852 5851 5850 5849 5848 5846 5845 5844 5844 5843 5843 5842 5842 5841 5841
5840 5842 5843 5845 5847 5849 5850 5853 5853 5854 5854 5855 5856 5856 5856 5856 5856 5856 5856 5856 5856 5855 5855 5854 5853 5853 5852 5851 5850 5848 5847 5846 5844 5843 5841 5840 5839 5838 5837 5837 5836 5835 5834 5834
5838 5840 5842 5844 5845 5847 5848 5849 5851 5851 5853 5853 5854 5854 5853 5852 5852 5852 5852 5852 5851 5851 5851 5850 5849 5848 5847 5846 5845 5843 5842 5841 5839 5837 5836 5834 5833 5831 5831 5829 5829 5828 5827 5826
5837 5839 5840 5842 5843 5845 5846 5847 5848 5849 5850 5850 5850 5852 5851 5849 5849 5849 5848 5848 5847 5847 5846 5845 5844 5843 5843 5841 5840 5839 5837 5835 5833 5831 5830 5828 5826 5825 5824 5822 5821 5820 5819 5818
5836 5837 5839 5840 5841 5842 5843 5845 5846 5846 5848 5849 5848 5848 5848 5845 5845 5845 5844 5843 5843 5842 5842 5840 5839 5838 5837 5836 5835 5834 5832 5830 5827 5825 5824 5822 5820 5818 5816 5815 5813 5812 5811 5809
5835 5836 5837 5838 5839 5840 5841 5844 5846 5846 5846 5847 5844 5844 5844 5841 5841 5840 5840 5839 5839 5838 5837 5836 5835 5834 5832 5831 5830 5828 5826 5824 5821 5819 5817 5815 5813 5810 5808 5807 5805 5804 5802 5801
5835 5836 5835 5836 5837 5838 5839 5841 5844 5845 5845 5844 5840 5840 5839 5837 5836 5836 5836 5835 5834 5833 5832 5831 5830 5829 5827 5826 5824 5822 5820 5818 5815 5813 5811 5808 5806 5803 5801 5800 5798 5796 5794 5792
5834 5834 5833 5833 5834 5835 5836 5837 5838 5839 5839 5839 5838 5836 5835 5833 5832 5832 5831 5831 5830 5829 5828 5826 5825 5824 5822 5820 5818 5816 5814 5812 5809 5806 5804 5802 5799 5796 5794 5792 5790 5788 5786 5784
5830 5831 5831 5832 5832 5833 5833 5834 5834 5835 5836 5836 5835 5833 5832 5829 5828 5828 5827 5826 5825 5824 5823 5821 5820 5818 5817 5815 5813 5810 5808 5806 5803 5801 5798 5795 5793 5790 5787 5785 5782 5780 5779 5777
5828 5829 5830 5830 5830 5830 5831 5831 5830 5831 5831 5832 5832 5832 5827 5826 5825 5823 5822 5821 5820 5819 5817 5816 5814 5813 5811 5809 5807 5805 5802 5800 5797 5795 5792 5789 5787 5784 5781 5779 5776 5774 5772 5770
5826 5827 5827 5827 5827 5826 5827 5827 5827 5828 5828 5827 5827 5829 5823 5822 5820 5819 5818 5816 5815 5814 5812 5810 5809 5807 5805 5803 5801 5799 5797 5794 5792 5789 5786 5783 5781 5778 5775 5772 5770 5768 5766 5764
5824 5825 5825 5825 5826 5824 5823 5823 5823 5824 5824 5823 5823 5824 5819 5818 5816 5815 5814 5812 5810 5809 5807 5805 5804 5802 5800 5798 5796 5793 5791 5789 5786 5784 5781 5778 5775 5773 5770 5767 5764 5763 5761 5759
5822 5822 5823 5824 5822 5821 5821 5820 5820 5820 5820 5819 5819 5818 5815 5813 5812 5811 5809 5807 5805 5804 5802 5800 5799 5797 5794 5792 5791 5788 5786 5783 5781 5779 5776 5773 5771 5768 5765 5762 5760 5758 5756 5754
5820 5820 5820 5819 5819 5818 5818 5818 5817 5817 5816 5815 5814 5812 5811 5809 5808 5806 5805 5803 5801 5799 5797 5795 5793 5791 5789 5787 5786 5784 5781 5779 5776 5774 5771 5769 5766 5764 5761 5758 5756 5754 5751 5749
5817 5818 5817 5817 5817 5816 5815 5815 5814 5813 5812 5811 5810 5808 5806 5805 5803 5801 5800 5798 5796 5795 5792 5790 5788 5786 5784 5782 5780 5779 5776 5774 5772 5769 5767 5765 5763 5760 5757 5755 5752 5750 5748 5746
5815 5816 5816 5815 5814 5814 5813 5812 5811 5810 5809 5808 5806 5805 5802 5801 5799 5797 5796 5794 5792 5789 5787 5785 5783 5781 5779 5777 5776 5774 5772 5770 5767 5765 5763 5761 5759 5756 5754 5751 5749 5747 5745 5743
5814 5814 5813 5813 5813 5812 5813 5809 5808 5807 5806 5804 5802 5800 5799 5797 5795 5793 5791 5789 5787 5785 5783 5781 5779 5777 5775 5774 5772 5770 5768 5766 5764 5762 5760 5758 5755 5753 5751 5748 5746 5744 5742 5740
5812 5812 5812 5811 5811 5810 5809 5807 5805 5804 5802 5800 5798 5796 5794 5793 5791 5789 5787 5785 5783 5781 5779 5776 5774 5773 5771 5769 5768 5766 5765 5763 5761 5759 5757 5755 5753 5751 5748 5746 5744 5742 5740 5738
5810 5810 5810 5809 5809 5808 5808 5805 5803 5802 5800 5797 5795 5793 5791 5789 5788 5786 5784 5781 5779 5777 5775 5772 5771 5769 5767 5766 5764 5763 5762 5760 5758 5756 5755 5753 5750 5748 5746 5744 5743 5741 5739 5737
5808 5808 5808 5807 5806 5805 5804 5802 5801 5800 5799 5795 5792 5791 5789 5787 5785 5783 5780 5778 5775 5773 5770 5768 5767 5765 5764 5763 5761 5760 5759 5758 5756 5754 5753 5751 5749 5747 5745 5743 5742 5740 5738 5737
5807 5807 5806 5805 5805 5805 5802 5800 5800 5798 5795 5792 5790 5788 5786 5784 5782 5779 5777 5774 5772 5770 5768 5766 5764 5763 5761 5760 5759 5758 5757 5756 5755 5753 5751 5749 5748 5746 5745 5743 5742 5740 5738 5737
5805 5805 5804 5804 5804 5802 5800 5798 5797 5795 5793 5791 5789 5787 5784 5782 5780 5777 5775 5772 5770 5768 5766 5764 5762 5761 5760 5759 5758 5757 5756 5755 5754 5752 5751 5749 5748 5746 5745 5743 5742 5740 5739 5737
5803 5803 5802 5801 5800 5799 5798 5797 5795 5794 5792 5790 5787 5785 5783 5780 5778 5775 5773 5771 5768 5766 5764 5763 5761 5760 5759 5758 5757 5756 5755 5754 5753 5752 5751 5750 5748 5747 5746 5744 5743 5742 5740 5739
5801 5801 5800 5799 5799 5798 5797 5795 5794 5792 5790 5788 5786 5784 5782 5779 5777 5774 5772 5770 5768 5766 5764 5762 5761 5760 5759 5758 5757 5756 5756 5755 5754 5753 5752 5750 5749 5748 5747 5746 5745 5744 5743 5741
5799 5799 5798 5798 5797 5796 5796 5794 5793 5791 5790 5788 5786 5783 5781 5779 5777 5774 5772 5770 5768 5766 5764 5763 5761 5760 5759 5759 5758 5757 5757 5756 5755 5754 5753 5752 5751 5750 5749 5748 5747 5746 5745 5744